Regional Weather Roundup
Issued by NWS Goodland, KS

Home | Current Version | Previous Version | Graphics & Text | Print | Product List | Glossary On
Versions: 1 2 3 4 5 6 7 8 9 10 11 12 13 14 15 16 17 18 19 20 21 22 23 24 25 26 27 28 29 30 31 32 33 34 35 36 37 38 39 40 41 42 43 44 45 46 47 48 49 50
000
ASUS43 KGLD 262259
RWRGLD

GOODLAND FORECAST AREA HOURLY WEATHER ROUNDUP
NATIONAL WEATHER SERVICE GOODLAND KS
500 PM MDT TUE JUL 26 2016

...OFFICIAL OBSERVATIONS...

CITY           SKY/WX    TMP DP  RH WIND       PRES   REMARKS
GOODLAND KS    SUNNY     91  64  40 S16G23    30.02S
HILL CITY KS   MOSUNNY   88  67  49 S12       29.99S
IMPERIAL NEB   MOSUNNY   90  61  37 S14       30.00R
MCCOOK NEB     SUNNY     92  63  38 S12G23    29.98S
AKRON CO       CLOUDY    78  56  46 S16G26    30.10S
BURLINGTON CO  SUNNY     91  57  31 SE16      30.05S
LIMON CO       NOT AVBL
$$

...UNOFFICIAL OBSERVATIONS...

CITY           SKY/WX    TMP DP  RH WIND       PRES   REMARKS
COLBY KS       MOSUNNY   91  70  49 SE14      30.02S
LENORA KS        N/A     89  32  13 MISG        N/A
NORTON KS      SUNNY     90  57  33 SE10G16   29.99F
SHARON SPRINGS   N/A     91  69  48 SE12G21     N/A
KIT CARSON CO    N/A     90  60  36 MISG        N/A
YUMA CO          N/A     82  65  55 CALM        N/A
$$




USA.gov is the U.S. government's official web portal to all federal, state and local government web resources and services.